Back to catalog

GLOBALSTAR M083

AliveCommunicationsLEO
NORAD 37739·PAYLOAD·🇺🇸 United States

Launched Jul 13, 2011 from Baikonur Cosmodrome

Loading…

Next Passes (next 24 hours)

TLE

FreshSource: Space-Track

Epoch: Sep 14, 2026, 14:36 UTC

1 37739U 11033A   26257.60878949 -.00000088  00000-0  88706-4 0  9990
2 37739  51.9844 100.2006 0000633 103.1093 291.7384 12.62259160704245

Track GLOBALSTAR M083 in real time with AllMySat

Download on the App Store